Weather in Novo-Talitsy

Russia / Ivanovo Oblast     57°00′25″N   40°51′17″E
temp.,
°C
wind,
m/s
gust,
m/s
humid.,
%
clouds,
%
prec.,
mm/h
press.,
hPa
HPBL,
m
13 august, sat
sat1300:00+16wnw237593 0.0 102355
03:00+15nw228185 0.0 102333
06:00+16nw118257 0.0 102318
09:00+22nnw1158100 0.0 1023465
12:00+26nw1146100 0.0 10221427
15:00+27nw1143100 0.0 10211792
18:00+25nw1256100 0.0 102144
21:00+20w116698 0.0 102111
14 august, sun
sun1400:00+19nw1170100 0.0 102111
03:00+18s2273100 0.0 102119
06:00+18sw1174100 0.0 102116
09:00+21se0165100 0.0 1022189
12:00+25ene125098 0.0 1021857
15:00+28ne223962 0.0 10202164
18:00+26ne235013 0.0 1020123
21:00+20ene36678 0.0 1021110
15 august, mon
mon1500:00+18ese227610 0.0 102116
03:00+17e227341 0.0 102139
06:00+18e247518 0.0 102271
09:00+23e345521 0.0 1022425
12:00+27e334314 0.0 10221385
15:00+26e234999 0.0 1022337
18:00+23e3660100 0.0 1022164
21:00+22ese2660100 0.0 1023155
16 august, tue
tue1600:00+20ese2464100 0.0 102490
03:00+18ese2375100 0.0 102457
06:00+18se2477100 0.0 102599
09:00+23se3457100 0.0 1025420
12:00+28sse23406 0.0 10241695
15:00+28se233690 0.0 10232357
18:00+25ese265185 0.0 1023200
21:00+21ese310627 0.0 1024232
17 august, wed
wed1700:00+18ese277226 0.0 1024127
03:00+17se237670 0.0 102449
06:00+19se256993 0.0 1024139
09:00+23se245310 0.0 1024449
12:00+27se33405 0.0 10231776
15:00+28ese33345 0.0 10222157
18:00+26ese23465 0.0 1021106
21:00+20e35605 0.0 102272